IW3HBX-3 Weather Reports


time (UTC)temp
F
wind
direction
speed
knots
gust
knots
rain 1hr
in
rain 24hr
in
rain mn
in
humidity
%
barometer
mb
20260502231939 57 225 0.0 0.0 0.00 0.00 0.00 65 1020.8
20260502230939 57 225 0.0 0.0 0.00 0.00 0.00 65 1020.8
20260502230439 58 225 0.0 0.0 0.00 0.00 0.00 65 1020.8
20260502225939 58 225 0.0 0.0 0.00 0.00 0.00 64 1020.8
20260502225439 59 225 0.0 0.0 0.00 0.00 0.00 63 1020.9
20260502224939 59 225 0.0 0.0 0.00 0.00 0.00 63 1020.8
20260502224439 59 225 0.0 0.0 0.00 0.00 0.00 62 1020.9
20260502223939 59 225 0.0 0.0 0.00 0.00 0.00 62 1020.9
20260502223439 59 225 0.0 0.0 0.00 0.00 0.00 61 1020.9
20260502222939 60 225 0.0 0.0 0.00 0.00 0.00 60 1021.1
20260502222438 61 225 0.0 0.0 0.00 0.00 0.00 59 1021.0
20260502221938 61 225 0.0 0.0 0.00 0.00 0.00 58 1021.1
20260502221438 61 225 0.0 0.0 0.00 0.00 0.00 59 1021.0
20260502220938 61 225 0.0 0.0 0.00 0.00 0.00 58 1021.0
20260502220438 61 225 0.0 0.0 0.00 0.00 0.00 58 1021.0
20260502215938 62 225 0.0 0.0 0.00 0.00 0.00 55 1020.9
20260502215438 62 225 0.0 0.9 0.00 0.00 0.00 56 1021.0
20260502214938 62 225 0.0 0.0 0.00 0.00 0.00 56 1021.0
20260502213938 63 225 0.0 0.9 0.00 0.00 0.00 55 1020.9
20260502213438 63 225 0.9 1.7 0.00 0.00 0.00 53 1020.9
20260502212938 63 225 1.7 1.7 0.00 0.00 0.00 53 1020.9
20260502212437 63 225 0.9 1.7 0.00 0.00 0.00 53 1020.9
20260502211937 63 225 0.9 0.9 0.00 0.00 0.00 53 1020.9
20260502211437 63 225 0.0 0.9 0.00 0.00 0.00 54 1021.0
20260502210937 62 225 0.0 0.0 0.00 0.00 0.00 55 1020.9
20260502210437 62 225 0.0 0.9 0.00 0.00 0.00 55 1021.0
20260502205937 62 225 0.0 0.0 0.00 0.00 0.00 56 1021.0
20260502205437 62 225 0.0 0.0 0.00 0.00 0.00 56 1021.0
20260502204937 62 225 0.0 0.0 0.00 0.00 0.00 55 1021.0
20260502204437 62 225 0.0 0.0 0.00 0.00 0.00 56 1021.0
20260502203937 62 225 0.0 0.0 0.00 0.00 0.00 55 1020.9
20260502203437 62 225 0.0 0.0 0.00 0.00 0.00 56 1021.0
20260502202937 62 225 0.0 0.0 0.00 0.00 0.00 55 1021.0
20260502202436 63 228 0.0 0.0 0.00 0.00 0.00 56 1021.1
20260502201936 63 228 0.0 0.0 0.00 0.00 0.00 55 1021.1
20260502201436 63 225 0.0 0.0 0.00 0.00 0.00 55 1021.1
20260502200936 63 225 0.0 0.0 0.00 0.00 0.00 55 1021.1
20260502200436 63 225 0.0 0.0 0.00 0.00 0.00 54 1021.1
20260502195936 63 225 0.0 0.0 0.00 0.00 0.00 54 1021.1
20260502195436 63 225 0.0 0.0 0.00 0.00 0.00 55 1021.1
20260502194936 63 225 0.0 0.0 0.00 0.00 0.00 54 1021.1
20260502194436 64 225 0.0 0.0 0.00 0.00 0.00 53 1021.0
20260502193936 64 225 0.0 0.0 0.00 0.00 0.00 54 1021.1
20260502193436 64 225 0.0 0.0 0.00 0.00 0.00 53 1021.0
20260502192935 64 225 0.0 0.0 0.00 0.00 0.00 54 1021.0
20260502192435 65 225 0.0 0.0 0.00 0.00 0.00 53 1020.9
20260502191935 65 225 0.0 0.0 0.00 0.00 0.00 52 1021.0
20260502190935 66 225 0.0 0.0 0.00 0.00 0.00 50 1020.9
20260502190435 67 225 0.0 0.0 0.00 0.00 0.00 50 1020.9
20260502185935 67 225 0.0 0.0 0.00 0.00 0.00 48 1020.9
20260502185436 67 225 0.0 0.9 0.00 0.00 0.00 48 1020.8
20260502184935 68 225 0.0 0.0 0.00 0.00 0.00 47 1020.8
20260502184435 69 225 0.0 0.9 0.00 0.00 0.00 45 1020.8
20260502183935 69 225 0.9 0.9 0.00 0.00 0.00 45 1020.8
20260502183435 69 225 0.0 0.0 0.00 0.00 0.00 45 1020.7
20260502182935 69 225 0.9 0.9 0.00 0.00 0.00 44 1020.6
20260502182435 69 225 0.0 0.0 0.00 0.00 0.00 44 1020.7
20260502181936 70 225 0.0 0.9 0.00 0.00 0.00 43 1020.6
20260502181436 71 225 0.9 1.7 0.00 0.00 0.00 42 1020.6
20260502180936 71 225 0.9 0.9 0.00 0.00 0.00 41 1020.5
20260502180436 72 226 0.9 1.7 0.00 0.00 0.00 41 1020.6
20260502170439 75 221 2.6 3.5 0.00 0.00 0.00 36 1020.5
20260502164015 76 230 2.6 5.2 0.00 0.00 0.00 35 1020.7
20260502163941 76 230 2.6 5.2 0.00 0.00 0.00 35 1020.7
20260502163441 77 227 2.6 4.3 0.00 0.00 0.00 34 1020.8
20260502162941 77 230 1.7 3.5 0.00 0.00 0.00 34 1020.8
20260502162441 77 225 2.6 4.3 0.00 0.00 0.00 34 1020.9
20260502161941 76 229 3.5 5.2 0.00 0.00 0.00 35 1020.8
20260502161442 77 236 2.6 4.3 0.00 0.00 0.00 35 1020.9
20260502160942 77 237 2.6 4.3 0.00 0.00 0.00 34 1020.9
20260502160442 77 249 2.6 5.2 0.00 0.00 0.00 34 1021.0
20260502151944 77 226 0.9 2.6 0.00 0.00 0.00 33 1021.4
20260502151445 78 226 1.7 3.5 0.00 0.00 0.00 32 1021.4
20260502150945 78 209 0.9 2.6 0.00 0.00 0.00 31 1021.4
20260502150445 78 232 3.5 5.2 0.00 0.00 0.00 32 1021.5
20260502130451 76 265 2.6 7.0 0.00 0.00 0.00 33 1023.0
20260502123452 76 228 2.6 6.1 0.00 0.00 0.00 33 1023.3
20260502122953 76 232 0.9 1.7 0.00 0.00 0.00 33 1023.3
20260502122453 75 243 5.2 7.0 0.00 0.00 0.00 34 1023.5
20260502121953 76 259 2.6 3.5 0.00 0.00 0.00 33 1023.5
20260502121453 75 235 5.2 7.8 0.00 0.00 0.00 34 1023.6
20260502120954 76 319 1.7 3.5 0.00 0.00 0.00 34 1023.6
20260502120454 75 163 0.0 1.7 0.00 0.00 0.00 34 1023.7
20260502115454 75 338 0.9 2.6 0.00 0.00 0.00 35 1023.8
20260502114955 74 235 4.3 7.0 0.00 0.00 0.00 35 1023.8
20260502114455 74 218 1.7 7.8 0.00 0.00 0.00 36 1023.9
20260502113955 75 270 2.6 5.2 0.00 0.00 0.00 34 1024.0
20260502113455 76 251 2.6 4.3 0.00 0.00 0.00 34 1024.2
20260502112956 74 274 0.9 2.6 0.00 0.00 0.00 36 1024.1
20260502112456 73 224 0.0 1.7 0.00 0.00 0.00 34 1024.2
20260502111956 72 228 5.2 7.0 0.00 0.00 0.00 36 1024.3
20260502111456 74 236 4.3 7.0 0.00 0.00 0.00 35 1024.4
20260502110957 74 226 1.7 3.5 0.00 0.00 0.00 34 1024.5
20260502110457 74 242 3.5 5.2 0.00 0.00 0.00 35 1024.6
20260502105957 74 242 1.7 3.5 0.00 0.00 0.00 34 1024.6
20260502105457 74 254 2.6 5.2 0.00 0.00 0.00 34 1024.7
20260502104958 73 253 1.7 3.5 0.00 0.00 0.00 35 1024.7
20260502104458 73 245 3.5 4.3 0.00 0.00 0.00 35 1024.8
20260502103958 74 241 1.7 4.3 0.00 0.00 0.00 35 1024.9
20260502103458 73 238 0.9 3.5 0.00 0.00 0.00 35 1024.9
20260502102959 72 235 2.6 7.8 0.00 0.00 0.00 35 1025.0
20260502102459 72 233 2.6 5.2 0.00 0.00 0.00 35 1025.0
20260502101959 73 255 2.6 4.3 0.00 0.00 0.00 35 1025.2
20260502101459 73 241 3.5 5.2 0.00 0.00 0.00 36 1025.2
20260502101000 72 257 1.7 2.6 0.00 0.00 0.00 36 1025.2
20260502100500 71 239 1.7 2.6 0.00 0.00 0.00 37 1025.3
20260502091502 70 285 0.9 2.6 0.00 0.00 0.00 39 1025.7
20260502091003 70 272 0.9 1.7 0.00 0.00 0.00 39 1025.7
20260502090503 69 214 1.7 4.3 0.00 0.00 0.00 40 1025.8
20260502071508 64 79 0.0 0.9 0.00 0.00 0.00 49 1026.6
20260502071033 63 65 1.7 1.7 0.00 0.00 0.00 51 1026.6
20260502071008 63 48 0.0 0.9 0.00 0.00 0.00 50 1026.5
20260502070509 63 65 1.7 1.7 0.00 0.00 0.00 51 1026.6
20260502070009 64 302 0.0 1.7 0.00 0.00 0.00 51 1026.6
20260502065509 63 262 0.0 0.9 0.00 0.00 0.00 52 1026.5
20260502065009 62 287 0.0 0.9 0.00 0.00 0.00 53 1026.6
20260502064510 61 296 0.9 0.9 0.00 0.00 0.00 55 1026.5
20260502064010 60 14 0.9 1.7 0.00 0.00 0.00 56 1026.6
20260502063510 60 299 0.9 1.7 0.00 0.00 0.00 56 1026.5
20260502063010 59 300 0.0 0.9 0.00 0.00 0.00 55 1026.6
20260502062511 59 294 0.9 1.7 0.00 0.00 0.00 55 1026.6
20260502062011 58 298 0.9 0.9 0.00 0.00 0.00 58 1026.6
20260502061511 57 284 0.0 1.7 0.00 0.00 0.00 60 1026.6
20260502061011 57 289 1.7 2.6 0.00 0.00 0.00 60 1026.6
20260502060512 57 301 0.9 1.7 0.00 0.00 0.00 61 1026.7
20260502060012 56 292 0.9 0.9 0.00 0.00 0.00 61 1026.7
20260502055512 55 292 0.9 1.7 0.00 0.00 0.00 62 1026.7
20260502055012 55 290 1.7 2.6 0.00 0.00 0.00 62 1026.7
20260502054513 55 293 0.9 1.7 0.00 0.00 0.00 62 1026.7
20260502054013 54 296 0.0 0.9 0.00 0.00 0.00 62 1026.6
20260502053513 53 296 0.9 1.7 0.00 0.00 0.00 65 1026.7
20260502053013 52 300 0.0 2.6 0.00 0.00 0.00 66 1026.8
20260502052514 53 287 0.9 1.7 0.00 0.00 0.00 65 1026.8
20260502052014 52 295 0.9 1.7 0.00 0.00 0.00 66 1026.8
20260502051514 52 300 0.9 1.7 0.00 0.00 0.00 65 1026.8
20260502051014 52 300 0.0 0.9 0.00 0.00 0.00 65 1026.7
20260502050514 52 306 0.9 0.9 0.00 0.00 0.00 65 1026.6
20260502050015 52 306 0.0 0.0 0.00 0.00 0.00 67 1026.6
20260502045515 51 306 0.0 0.0 0.00 0.00 0.00 69 1026.6
20260502045015 51 306 0.0 0.0 0.00 0.00 0.00 68 1026.5
20260502044515 50 306 0.0 0.9 0.00 0.00 0.00 69 1026.6
20260502044016 50 306 0.9 0.9 0.00 0.00 0.00 70 1026.6
20260502043516 49 306 0.9 1.7 0.00 0.00 0.00 70 1026.5
20260502043117 49 322 0.9 0.9 0.00 0.00 0.00 71 1026.5
20260502043016 49 322 0.9 0.9 0.00 0.00 0.00 71 1026.5
20260502042516 48 322 0.0 0.9 0.00 0.00 0.00 72 1026.5
20260502042017 48 322 0.9 0.9 0.00 0.00 0.00 72 1026.5
20260502041517 48 322 0.9 0.9 0.00 0.00 0.00 74 1026.6
20260502041017 48 18 0.0 0.9 0.00 0.00 0.00 73 1026.6
20260502040517 48 294 0.0 0.0 0.00 0.00 0.00 74 1026.6
20260502040018 48 294 0.0 0.9 0.00 0.00 0.00 74 1026.7
20260502035518 48 294 0.0 0.0 0.00 0.00 0.00 74 1026.7
20260502035149 48 294 0.0 0.0 0.00 0.00 0.00 75 1026.5
20260502035018 48 294 0.0 0.0 0.00 0.00 0.00 74 1026.6
20260502034517 48 294 0.0 0.0 0.00 0.00 0.00 75 1026.5
20260502034017 48 294 0.0 0.0 0.00 0.00 0.00 75 1026.5
20260502033517 48 294 0.0 0.0 0.00 0.00 0.00 76 1026.5
20260502033017 48 294 0.0 0.0 0.00 0.00 0.00 75 1026.5
20260502032517 48 294 0.0 0.0 0.00 0.00 0.00 74 1026.5
20260502032017 48 294 0.0 0.0 0.00 0.00 0.00 74 1026.5
20260502031517 48 294 0.0 0.0 0.00 0.00 0.00 73 1026.5
20260502031017 48 294 0.0 0.0 0.00 0.00 0.00 73 1026.6
20260502030517 48 294 0.0 0.0 0.00 0.00 0.00 74 1026.6
20260502030017 48 294 0.0 0.0 0.00 0.00 0.00 74 1026.7
20260502025517 49 294 0.0 0.0 0.00 0.00 0.00 73 1026.6
20260502025017 49 294 0.0 0.0 0.00 0.00 0.00 73 1026.6
20260502024516 49 294 0.0 0.0 0.00 0.00 0.00 73 1026.7
20260502024016 49 294 0.0 0.0 0.00 0.00 0.00 71 1026.7
20260502023516 50 294 0.0 0.0 0.00 0.00 0.00 71 1026.7
20260502023016 50 294 0.0 0.0 0.00 0.00 0.00 71 1026.7
20260502022516 50 294 0.0 0.0 0.00 0.00 0.00 69 1026.7
20260502022016 50 294 0.0 0.0 0.00 0.00 0.00 67 1026.8
20260502021516 50 294 0.9 0.9 0.00 0.00 0.00 66 1026.8
20260502021016 50 294 0.0 0.9 0.00 0.00 0.00 67 1026.7
20260502020516 50 294 0.0 0.0 0.00 0.00 0.00 68 1026.7
20260502020016 51 294 0.0 0.0 0.00 0.00 0.00 67 1026.6
20260502015516 51 294 0.0 0.0 0.00 0.00 0.00 65 1026.7
20260502015015 50 294 0.9 0.9 0.00 0.00 0.00 65 1026.7
20260502014515 50 267 0.0 0.0 0.00 0.00 0.00 68 1026.7
20260502014015 50 267 0.0 0.0 0.00 0.00 0.00 68 1026.6
20260502013515 50 267 0.0 0.0 0.00 0.00 0.00 69 1026.5
20260502013015 51 267 0.0 0.0 0.00 0.00 0.00 68 1026.6
20260502012515 51 267 0.0 0.0 0.00 0.00 0.00 68 1026.6
20260502012015 51 267 0.0 0.0 0.00 0.00 0.00 67 1026.6
20260502011515 51 267 0.0 0.0 0.00 0.00 0.00 67 1026.5
20260502011015 50 267 0.0 0.9 0.00 0.00 0.00 65 1026.5
20260502010515 50 267 0.0 0.9 0.00 0.00 0.00 66 1026.6
20260502005515 51 267 0.0 0.0 0.00 0.00 0.00 66 1026.6
20260502005014 51 267 0.0 0.0 0.00 0.00 0.00 65 1026.7
20260502004514 51 267 0.0 0.0 0.00 0.00 0.00 61 1026.6
20260502004014 51 267 0.0 0.0 0.00 0.00 0.00 64 1026.5
20260502003514 51 267 0.0 0.0 0.00 0.00 0.00 63 1026.6
20260502003014 51 267 0.0 0.0 0.00 0.00 0.00 63 1026.7
20260502002514 51 267 0.0 0.0 0.00 0.00 0.00 62 1026.7
20260502002014 51 267 0.0 0.0 0.00 0.00 0.00 65 1026.8
20260502001514 51 267 0.0 0.0 0.00 0.00 0.00 64 1026.8
20260502001014 51 267 0.0 0.0 0.00 0.00 0.00 62 1026.9
20260502000514 51 267 0.0 0.0 0.00 0.00 0.00 62 1026.7
20260502000014 52 267 0.0 0.0 0.00 0.00 0.00 64 1026.8
20260501235514 53 267 0.0 0.0 0.00 0.00 0.00 60 1026.8
20260501235013 52 267 0.0 0.0 0.00 0.00 0.00 62 1026.8
20260501234513 52 267 0.0 0.0 0.00 0.00 0.00 63 1026.9
20260501234013 52 267 0.0 0.0 0.00 0.00 0.00 63 1026.8
20260501233513 51 267 0.0 0.0 0.00 0.00 0.00 63 1026.7
20260501233013 51 267 0.0 0.0 0.00 0.00 0.00 65 1026.8
20260501232513 51 267 0.0 0.0 0.00 0.00 0.00 62 1026.7